Regional Weather Roundup
Issued by NWS

Home | Current Version | Previous Version | Text Only | Print | Product List | Glossary Off
Versions: 1 2 3 4 5 6 7 8 9 10 11 12 13 14 15 16 17 18 19 20 21 22 23 24 25 26 27 28 29 30 31 32 33 34 35 36 37 38 39 40 41 42 43 44 45 46 47 48 49 50

000
ASUS43 KFSD 181010
RWRSD

WEATHER ROUNDUP FOR SOUTH DAKOTA
NATIONAL WEATHER SERVICE SIOUX FALLS SD
500 AM CDT SAT APR 18 2015

NOTE: "FAIR" INDICATES FEW OR NO CLOUDS BELOW 12,000 FEET WITH NO
SIGNIFICANT WEATHER AND/OR OBSTRUCTIONS TO VISIBILITY.


SDZ001>005-009-010-012>017-181100-
NORTHWEST AND NORTH CENTRAL SOUTH DAKOTA

CITY           SKY/WX    TMP DP  RH WIND       PRES   REMARKS
BUFFALO          N/A     44  33  65 W5        29.97F
FAITH            N/A     48  38  68 NE3       30.02F
MOBRIDGE       CLOUDY    51  26  37 E14       30.01F
$$

SDZ012>016-024>037-041>051-057-063-072>074-181100-
SOUTHWEST AND SOUTH CENTRAL SOUTH DAKOTA

CITY           SKY/WX    TMP DP  RH WIND       PRES   REMARKS
RAPID CTY ARPT CLOUDY    48  45  89 N3        30.02F
PIERRE         CLOUDY    53  44  71 N12       29.99F
CUSTER         FOG       41  40  96 NE7       30.03F VSB 1/4
ELLSWORTH AFB  CLOUDY    48  47  98 NW5       30.01F
PHILIP         CLOUDY    49  46  90 CALM      30.00F
PINE RIDGE     RAIN      47  45  93 NE6       29.98F FOG
SPEARFISH      CLOUDY    46  41  81 NE5       30.03F
WINNER         LGT RAIN  52  48  86 NE8       30.00F
$$

SDZ004>011-016>023-039-040-181100-
NORTHEAST SOUTH DAKOTA

CITY           SKY/WX    TMP DP  RH WIND       PRES   REMARKS
ABERDEEN       MOCLDY    42  25  50 N9        30.06S
WATERTOWN      PTCLDY    45  29  53 N5        30.04F
BROOKINGS      CLOUDY    46  30  53 NE5       30.04S
SISSETON         N/A     39  24  55 NW5       30.08R
$$

SDZ017-020-022-023-036>040-048>070-181100-
SOUTHEAST SOUTH DAKOTA

CITY           SKY/WX    TMP DP  RH WIND       PRES   REMARKS
SIOUX FALLS    MOCLDY    52  27  38 NE6       30.01S
HURON          CLOUDY    51  29  42 NE7       30.00F
CHAMBERLAIN    CLOUDY    55  31  40 E5        29.99S
MITCHELL       CLOUDY    55  27  34 E8        30.00S
YANKTON        CLOUDY    55  34  44 NE6       29.97F
$$

ABBREVIATIONS USED IN REMARKS
   TC - TEMPERATURE IN CELSIUS
  WCI - WIND CHILL INDEX
   HX - HEAT INDEX
  VSB - VISIBILITY




USA.gov is the U.S. government's official web portal to all federal, state and local government web resources and services.